SCP
0 0 0 0 0 0 0 0 0 0 0 0 0 0 0 0 0 0 0 0 0 0 0 0 0 0 0 0 0 0 0 0 0 0 0 0 0 0 0 0 0 0 0 0
0 0 0 0 0 0 0 0 0 0 0 0 0 0 0 0 0 0 0 0 0 0 0 0 0 0 0 0 0 0 0 0 0 0 0 0 0 0 0 0 0 0 0 0
0 0 0 0 0 0 0 0 0 0 0 0 0 0 0 0 0 0 0 0 0 0 0 0 0 0 0 0 0 0 0 0 0 0 0 0 0 0 0 0 0 0 0 0
0 0 0 0 0 0 0 0 0 0 0 0 0 0 0 0 0 0 0 0 0 0 0 0 0 0 0 0 0 0 0 0 0 0 0 0 0 0 0 0 0 0 0 0
0 0 0 0 0 0 0 0 0 0 0 0 0 0 0 0 0 0 0 0 0 0 0 0 0 0 0 0 0 0 0 0 0 0 0 0 0 0 0 0 0 0 0 0
0 0 0 0 0 0 0 0 0 0 0 0 0 0 0 0 0 0 0 0 0 0 0 0 0 0 0 0 0 0 0 0 0 0 0 0 0 0 0 0 0 0 0 0
0 0 0 0 0 0 0 0 0 0 0 0 0 0 0 0 0 0 0 0 0 0 0 0 0 0 0 0 0 0 0 0 0 0 0 0 0 0 0 0 0 0 0 0
0 0 0 0 0 0 0 0 0 0 0 0 0 0 0 0 0 0 0 0 0 0 0 0 0 0 0 0 0 0 0 0 0 0 0 0 0 0 0 0 0 0 0 0
0 0 0 0 0 0 0 0 0 0 0 0 0 0 0 0 0 0 0 0 0 0 0 0 0 0 0 0 0 0 0 0 0 0 0 0 0 0 0 0 0 0 0 0
0 0 0 0 0 0 0 0 0 0 0 0 0 0 0 0 0 0 0 0 0 0 0 0 0 0 0 0 0 0 0 0 0 0 0 0 0 0 0 0 0 0 0 0
0 0 0 0 0 0 0 0 0 0 0 0 0 0 0 0 0 0 0 0 0 0 0 0 0 0 0 0 0 0 0 0 0 0 0 0 0 0 0 0 0 0 0 0
0 0 0 0 0 0 0 0 0 0 0 0 0 0 0 0 0 0 0 0 0 0 0 0 0 0 0 0 0 0 0 0 0 0 0 0 0 0 0 0 0 0 0 0
0 0 0 0 0 0 0 0 0 0 0 0 0 0 0 0 0 0 0 0 0 0 0 0 0 0 0 0 0 0 0 0 0 0 0 0 0 0 0 0 0 0 0 0
0 0 0 0 0 0 0 0 0 0 0 0 0 0 0 0 0 0 0 0 0 0 0 0 0 0 0 0 0 0 0 0 0 0 0 0 0 0 0 0 0 0 0 0
0 0 0 0 0 0 0 0 0 0 0 0 0 0 0 0 0 0 0 0 0 0 0 0 0 0 0 0 0 0 0 0 0 0 0 0 0 0 0 0 0 0 0 0
0 0 0 0 0 0 0 0 0 0 0 0 0 0 0 0 0 0 0 0 0 0 0 0 0 0 0 0 0 0 0 0 0 0 0 0 0 0 0 0 0 0 0 0
0 0 0 0 0 0 0 0 0 0 0 0 0 0 0 0 0 0 0 0 0 0 0 0 0 0 0 0 0 0 0 0 0 0 0 0 0 0 0 0 0 0 0 0
0 0 0 0 0 0 0 0 0 0 0 0 0 0 0 0 0 0 0 0 0 0 0 0 0 0 0 0 0 0 0 0 0 0 0 0 0 0 0 0 0 0 0 0
0 0 0 0 0 0 0 0 0 0 0 0 0 0 0 0 0 0 0 0 0 0 0 0 0 0 0 0 0 0 0 0 0 0 0 0 0 0 0 0 0 0 0 0
0 0 0 0 0 0 0 0 0 0 0 0 0 0 0 0 0 0 0 0 0 0 0 0 0 0 0 0 0 0 0 0 0 0 0 0 0 0 0 0 0 0 0 0
0 0 0 0 0 0 0 0 0 0 0 0 0 0 0 0 0 0 0 0 0 0 0 0 0 0 0 0 0 0 0 0 0 0 0 0 0 0 0 0 0 0 0 0
0 0 0 0 0 0 0 0 0 0 0 0 0 0 0 0 0 0 0 0 0 0 0 0 0 0 0 0 0 0 0 0 0 0 0 0 0 0 0 0 0 0 0 0
0 0 0 0 0 0 0 0 0 0 0 0 0 0 0 0 0 0 0 0 0 0 0 0 0 0 0 0 0 0 0 0 0 0 0 0 0 0 0 0 0 0 0 0
0 0 0 0 0 0 0 0 0 0 0 0 0 0 0 0 0 0 0 0 0 0 0 0 0 0 0 0 0 0 0 0 0 0 0 0 0 0 0 0 0 0 0 0
0 0 0 0 0 0 0 0 0 0 0 0 0 0 0 0 0 0 0 0 0 0 0 0 0 0 0 0 0 0 0 0 0 0 0 0 0 0 0 0 0 0 0 0
0 0 0 0 0 0 0 0 0 0 0 0 0 0 0 0 0 0 0 0 0 0 0 0 0 0 0 0 0 0 0 0 0 0 0 0 0 0 0 0 0 0 0 0
Wind_Speed
1 3 3 5 4 5 1 1 2 3 6 10 11 10 5 5 5 3 3 3 4 3 3 4 4 5 4 4 4 4 4 3 3 3 2 2 2 2 3 2 2 1 1 1
4 3 5 3 2 2 2 1 1 4 6 7 9 8 3 4 1 2 3 4 4 4 4 4 4 4 4 4 4 4 4 3 3 2 1 1 0 1 1 2 3 3 3 3
3 5 2 2 3 1 2 4 5 5 3 7 7 3 3 2 2 3 3 4 5 7 7 6 6 6 5 6 6 6 5 4 4 3 2 2 2 3 3 3 3 3 4 4
2 3 1 2 5 2 3 6 9 9 6 2 2 2 4 3 5 4 3 3 6 7 7 7 7 7 7 7 6 5 5 4 3 3 2 2 1 1 2 2 3 5 5 5
4 3 2 3 4 2 4 4 6 7 6 4 3 2 5 3 4 5 4 5 6 8 9 9 8 8 6 5 4 4 4 3 3 3 3 2 1 2 2 3 4 4 5 5
5 3 3 4 2 4 7 8 7 6 5 3 2 1 4 4 6 4 5 6 7 7 7 6 4 3 2 3 4 4 4 3 3 3 3 3 3 4 3 4 4 4 3 4
8 5 2 1 2 3 6 6 3 4 4 1 2 0 6 7 7 7 6 6 5 4 4 4 4 4 3 4 4 3 4 2 2 3 3 3 4 4 4 4 4 4 3 4
2 6 4 1 3 3 2 8 7 3 3 1 2 2 7 7 6 6 6 4 2 3 4 5 4 4 4 4 4 3 3 2 2 2 3 4 4 3 3 4 4 4 4 4
3 5 5 2 2 4 2 1 5 8 5 4 1 4 7 4 4 5 5 4 4 4 5 5 4 4 4 4 3 3 2 1 2 3 3 4 4 4 4 5 4 4 4 5
4 1 5 4 6 5 4 3 6 5 5 3 2 4 5 6 6 5 5 5 4 4 5 4 4 4 3 3 2 2 2 2 2 3 3 3 4 4 5 4 5 5 6 5
3 3 5 5 2 1 4 4 5 4 5 6 4 5 7 9 8 7 6 7 7 6 5 4 4 3 3 2 2 1 1 2 2 3 4 4 4 5 5 5 6 6 6 6
1 5 1 4 4 2 3 3 6 4 1 4 5 5 3 8 7 8 7 6 6 6 5 4 4 2 2 1 2 2 2 3 3 4 4 4 5 5 5 6 7 6 7 6
4 6 4 9 10 5 1 1 5 7 5 4 5 3 2 5 6 6 7 7 6 6 4 3 2 1 2 3 3 3 4 4 4 4 4 5 5 6 6 7 7 7 7 7
6 5 6 5 7 5 3 2 3 6 5 4 6 7 5 6 6 6 7 7 6 5 4 3 2 2 3 4 4 4 4 4 4 4 4 6 6 7 7 7 7 7 7 7
5 3 2 3 4 3 3 2 2 4 7 7 7 9 9 9 9 8 7 6 6 4 4 3 2 3 3 4 4 4 4 4 4 4 5 6 7 6 7 7 7 7 7 8
4 3 1 4 5 5 4 2 1 2 4 7 8 5 6 5 5 4 5 6 5 4 3 2 1 2 4 4 4 4 4 5 4 5 6 7 6 6 7 7 7 7 7 7
3 4 3 3 6 4 3 3 2 2 3 7 6 6 5 4 5 6 6 6 5 4 3 2 2 3 4 4 4 4 5 5 5 6 6 6 6 7 7 8 7 8 8 7
7 5 4 0 4 2 8 4 4 6 3 4 7 6 7 7 5 5 6 6 6 5 3 3 3 3 4 3 3 4 4 5 5 6 6 7 7 8 8 8 8 8 7 7
8 8 4 3 1 5 6 3 4 6 2 3 8 7 6 6 3 1 5 6 7 5 4 4 3 3 3 4 4 4 5 5 6 6 7 7 7 8 9 9 9 8 8 8
5 6 6 4 3 5 7 4 5 9 1 4 7 7 7 7 2 5 5 6 6 5 3 3 2 1 2 4 4 4 5 6 6 7 7 7 7 8 9 10 9 8 7 8
2 2 3 4 4 7 7 4 4 3 8 8 8 8 7 7 7 6 6 6 5 4 3 3 1 1 4 4 3 4 5 6 7 7 7 8 8 8 9 8 7 8 8 8
6 3 4 4 3 7 8 4 6 9 6 8 8 8 8 7 6 6 7 7 6 4 3 2 1 3 4 4 3 5 6 6 6 6 7 8 8 8 8 8 8 8 7 7
2 7 6 8 9 9 7 8 8 8 8 8 8 8 9 8 7 8 7 6 5 4 3 2 2 3 4 4 3 5 6 6 6 6 8 8 9 8 7 7 8 7 6 5
5 2 3 2 6 6 5 4 5 8 9 9 9 10 10 9 8 8 7 5 5 4 3 2 2 3 5 5 5 5 6 5 5 7 8 8 8 9 9 6 5 6 6 5
6 2 1 3 5 3 2 5 7 6 7 8 8 9 11 11 9 8 7 7 6 4 3 3 3 4 5 5 5 6 5 4 5 7 7 8 7 8 8 7 6 6 6 5
4 3 4 6 7 5 6 6 7 8 9 11 10 9 8 10 10 9 8 7 6 5 4 3 3 4 5 5 5 5 4 4 5 6 7 6 6 7 6 7 8 8 8 9
Wind_Direction
355 92 237 230 189 187 260 324 358 24 41 63 69 66 40 33 40 57 96 111 123 133 138 130 132 128 124 117 110 108 100 82 69 52 44 35 4 349 350 346 336 315 293 271
17 289 247 217 211 115 86 82 47 38 44 78 83 72 22 29 326 247 176 166 158 168 165 163 161 162 159 157 155 148 140 130 116 111 115 136 212 306 325 353 354 346 327 304
190 255 310 334 304 115 171 182 178 151 87 83 96 52 322 313 297 275 215 183 186 189 186 189 190 196 191 187 183 172 170 158 145 131 97 46 30 11 2 349 333 325 313 298
255 266 325 284 272 197 233 198 169 154 126 90 136 181 270 268 281 258 233 204 209 206 194 196 197 199 202 204 188 174 169 158 152 132 116 115 115 273 268 272 289 305 308 303
262 235 251 243 244 183 197 159 133 128 112 82 30 107 280 304 280 265 250 234 225 213 200 200 201 203 205 197 172 164 154 156 162 154 152 153 198 231 259 282 301 305 307 307
265 248 211 225 253 147 126 91 71 65 78 64 283 157 273 240 235 254 251 242 231 218 203 199 193 157 132 122 130 142 150 174 186 182 186 193 217 241 268 290 297 300 301 305
331 325 292 196 55 57 105 102 57 16 35 302 273 169 257 255 241 231 239 239 230 206 166 151 138 130 137 136 137 143 154 191 218 219 228 230 233 241 251 265 270 280 290 295
336 313 303 286 172 167 161 137 149 178 170 205 300 263 263 267 255 237 235 232 214 170 148 143 144 142 143 138 139 146 159 201 240 247 258 259 257 252 249 248 246 254 258 266
202 280 309 324 36 104 51 38 153 123 104 108 242 290 303 283 256 231 223 208 188 158 139 134 128 130 135 136 149 156 157 207 255 261 267 269 269 253 249 258 258 259 261 271
173 235 316 329 35 27 109 129 70 84 119 117 185 218 226 222 215 212 196 170 156 143 133 132 133 141 150 152 150 143 160 216 259 274 274 274 266 263 264 267 269 268 270 273
80 113 328 360 29 353 20 40 88 98 135 138 177 252 225 197 190 173 171 166 161 153 151 154 157 161 155 146 153 180 229 258 279 282 278 283 280 277 276 270 268 268 268 269
92 109 338 297 287 207 171 165 134 121 20 122 135 264 272 163 164 159 166 169 163 159 164 163 161 156 150 180 230 242 252 262 267 271 278 279 278 279 277 272 269 266 265 264
104 92 40 345 341 343 357 201 145 128 111 118 132 234 230 147 157 168 165 168 170 166 157 153 159 177 212 240 252 256 259 264 271 275 280 283 283 280 275 272 271 268 264 264
108 103 145 195 243 268 295 276 150 119 129 160 174 176 192 179 177 184 180 179 173 165 162 167 197 237 251 258 257 263 267 269 274 277 281 282 279 275 272 273 272 269 265 264
100 126 229 247 274 314 304 289 163 146 167 162 182 174 198 194 188 190 184 168 151 158 164 169 197 243 262 270 274 273 270 277 280 282 283 280 279 279 280 280 278 275 270 271
111 150 11 326 314 325 316 328 138 128 127 129 133 176 205 188 170 163 159 150 153 163 166 172 209 267 278 279 275 275 275 280 280 281 282 283 287 288 287 284 282 279 275 271
148 134 107 292 314 3 319 260 145 113 139 149 163 187 173 158 166 167 163 159 164 166 173 199 245 263 272 272 266 271 273 281 289 287 288 290 289 289 286 289 290 282 278 273
150 130 131 195 13 323 256 258 123 99 58 120 130 149 162 168 171 179 177 167 171 176 190 229 252 266 272 271 275 276 283 293 295 294 294 296 295 293 291 289 285 282 277 274
145 137 133 130 203 278 289 287 143 119 71 140 134 146 156 151 107 272 206 178 180 187 198 218 233 242 264 281 285 295 301 302 302 299 298 299 299 298 297 294 289 286 282 279
101 114 129 152 178 239 250 248 136 101 143 207 157 159 157 139 118 255 216 180 183 188 197 208 232 254 289 286 293 305 302 302 297 294 295 297 297 297 296 292 287 285 280 277
99 81 150 184 210 251 238 222 118 137 226 204 174 167 163 172 197 210 181 183 185 186 189 185 198 274 279 284 298 301 299 291 285 291 297 299 297 295 292 288 286 287 286 284
179 175 205 164 186 251 239 180 174 209 194 176 173 173 171 184 184 167 171 180 181 180 188 187 221 278 283 288 294 296 292 283 289 296 299 300 298 298 304 296 295 293 289 289
179 186 183 182 209 229 216 201 204 166 168 179 174 178 165 164 171 171 176 180 185 186 205 216 229 280 293 290 281 284 283 288 297 304 302 300 301 299 294 291 294 299 295 286
294 201 150 240 265 252 228 207 182 174 177 178 171 170 165 166 171 171 174 184 192 203 214 219 241 284 291 289 285 272 281 290 300 302 301 301 303 304 303 297 290 292 293 289
258 321 28 291 285 307 261 209 193 182 167 164 169 172 170 163 169 172 179 188 194 202 213 210 229 261 275 284 289 288 290 297 304 302 300 303 300 299 302 299 292 288 277 264
250 200 187 233 236 205 237 235 186 173 180 178 173 176 175 168 171 170 177 183 184 193 201 215 240 258 272 283 289 293 290 295 302 305 305 302 302 302 300 302 307 299 287 287